Terug naar catalogus

STARLINK-31634

ActiefCommunicatieVLEO
NORAD 59330·PAYLOAD·🇺🇸 United States

Gelanceerd Mar 25, 2024 vanaf Cape Canaveral Space Force Station

Loading…

Volgende Passages (komende 24 uur)

TLE

VersSource: CelesTrak SupGP

Epoch: Sep 15, 2026, 02:32 UTC

1 59330C 24057L   26258.10604167 -.00051985  00000+0 -18833-2 0  2588
2 59330  43.0026 197.5710 0001397 273.2638 145.1260 15.27596504    12

Volg STARLINK-31634 in realtime met AllMySat

Download on the App Store